Weather History for Alpena, MI

Change the Weather History Date:

Saturday, January 12, 2013

  Actual Average Record
Temperature  
Mean Temperature 47 °F 19 °F  
Max Temperature 57 °F 27 °F 57 °F (2013)
Min Temperature 37 °F 12 °F -16 °F (1917)
Degree Days  
Heating Degree Days 18 46  
Month to date heating degree days 419 541  
Since 1 July heating degree days 3195 3602  
Moisture  
Dew Point 38 °F    
Average Humidity 66    
Maximum Humidity 96    
Minimum Humidity 35    
Precipitation  
Precipitation T in 0.06 in 0.50 in (1918)
Month to date precipitation 0.57 0.69  
Year to date precipitation 0.57 0.69  
Snow  
Snow 0.00 in 0.70 in 10.00 in (1918)
Month to date snowfall 0.6 8.3  
Since 1 July snowfall 14.3 35.6  
Snow Depth 1.00 in    
Sea Level Pressure  
Sea Level Pressure 29.76 in    
Wind  
Wind Speed 8 mph (SSW)    
Max Wind Speed 24 mph    
Max Gust Speed 33 mph    
Visibility 9 miles    
Events Rain    
T = Trace of Precipitation, MM = Missing Value Source: NWS Daily Summary

Daily Weather History Graph

Daily Weather History Graph

Search for Another Location

Airport:

Trip Planner

Search our weather history database for the weather conditions in past years. The results will help you decide how hot, cold, wet, or windy it might be!

Date:

Astronomy

Jan. 12, 2013 Rise Set
Actual Time 8:10 AM EST 5:15 PM EST
Civil Twilight 7:37 AM EST 5:48 PM EST
Nautical Twilight 7:00 AM EST 6:24 PM EST
Astronomical Twilight 6:25 AM EST 7:00 PM EST
Moon 8:24 AM EST (1/12) 6:48 PM EST (1/12)
Length of Visible Light 10h 10m
Length of Day
9h 04m
New Moon, 1% of the Moon is Illuminated
Jan 12
New Moon
Jan 18
First Quarter
Jan 26
Full
Feb 3
Last Quarter
Feb 10
New

Hourly Weather History & Observations

Time (EST) Temp. Windchill Dew Point Humidity Pressure Visibility Wind Dir Wind Speed Gust Speed Precip Events Conditions
12:24 AM 44.6 °F 42.2 °F 42.8 °F 93% 29.74 in 10.0 mi SSW 4.6 mph - N/A   Overcast
12:54 AM 44.1 °F 40.1 °F 42.1 °F 93% 29.75 in 9.0 mi South 6.9 mph - N/A   Overcast
1:33 AM 42.8 °F 39.3 °F 42.8 °F 100% 29.72 in 9.0 mi SSE 5.8 mph - N/A   Overcast
1:54 AM 43.0 °F 39.5 °F 41.0 °F 93% 29.75 in 9.0 mi South 5.8 mph - N/A   Overcast
2:54 AM 45.0 °F 40.6 °F 43.0 °F 93% 29.74 in 8.0 mi South 8.1 mph - N/A   Overcast
3:54 AM 46.0 °F 41.9 °F 43.0 °F 89% 29.73 in 8.0 mi SSW 8.1 mph - N/A   Mostly Cloudy
4:19 AM 44.6 °F 40.7 °F 42.8 °F 93% 29.70 in 8.0 mi South 6.9 mph - N/A   Scattered Clouds
4:28 AM 44.6 °F 40.7 °F 42.8 °F 93% 29.70 in 8.0 mi South 6.9 mph - N/A   Mostly Cloudy
4:54 AM 46.0 °F 41.9 °F 43.0 °F 89% 29.72 in 8.0 mi SSW 8.1 mph - N/A   Mostly Cloudy
5:20 AM 46.4 °F 41.9 °F 42.8 °F 87% 29.69 in 9.0 mi South 9.2 mph - N/A   Scattered Clouds
5:54 AM 45.0 °F 40.6 °F 43.0 °F 93% 29.70 in 9.0 mi South 8.1 mph - N/A   Partly Cloudy
6:15 AM 44.6 °F 39.7 °F 42.8 °F 93% 29.69 in 8.0 mi South 9.2 mph - N/A   Mostly Cloudy
6:54 AM 43.0 °F 38.2 °F 41.0 °F 93% 29.71 in 7.0 mi South 8.1 mph - N/A   Mostly Cloudy
7:13 AM 44.6 °F 40.2 °F 42.8 °F 93% 29.70 in 7.0 mi South 8.1 mph - N/A   Scattered Clouds
7:20 AM 44.6 °F 40.7 °F 42.8 °F 93% 29.71 in 7.0 mi South 6.9 mph - N/A   Mostly Cloudy
7:54 AM 44.1 °F 38.6 °F 42.1 °F 93% 29.72 in 7.0 mi South 10.4 mph - N/A   Mostly Cloudy
8:12 AM 44.6 °F 39.7 °F 42.8 °F 93% 29.70 in 7.0 mi South 9.2 mph - N/A   Scattered Clouds
8:54 AM 44.1 °F 38.1 °F 42.1 °F 93% 29.71 in 7.0 mi South 11.5 mph - N/A   Clear
9:54 AM 46.0 °F 41.4 °F 43.0 °F 89% 29.72 in 9.0 mi South 9.2 mph - N/A   Clear
10:54 AM 50.0 °F - 44.1 °F 80% 29.72 in 10.0 mi SSW 10.4 mph - N/A   Clear
11:54 AM 54.0 °F - 42.1 °F 64% 29.70 in 10.0 mi SW 15.0 mph 29.9 mph N/A   Clear
12:54 PM 55.0 °F - 39.9 °F 57% 29.69 in 10.0 mi SW 19.6 mph 28.8 mph N/A   Clear
1:54 PM 55.9 °F - 39.0 °F 53% 29.70 in 10.0 mi SW 12.7 mph 25.3 mph N/A   Clear
2:54 PM 55.9 °F - 33.1 °F 42% 29.75 in 10.0 mi SW 17.3 mph 33.4 mph N/A   Clear
3:54 PM 54.0 °F - 32.0 °F 43% 29.78 in 10.0 mi WSW 9.2 mph 18.4 mph N/A   Clear
4:54 PM 51.1 °F - 25.0 °F 36% 29.80 in 10.0 mi WSW 9.2 mph 19.6 mph N/A   Clear
5:54 PM 48.0 °F - 23.0 °F 37% 29.83 in 10.0 mi West 8.1 mph 16.1 mph N/A   Clear
6:54 PM 46.0 °F 43.1 °F 24.1 °F 42% 29.88 in 10.0 mi West 5.8 mph - N/A   Clear
7:54 PM 44.1 °F - 25.0 °F 47% 29.90 in 10.0 mi Calm Calm - N/A   Clear
8:54 PM 42.1 °F 40.2 °F 26.1 °F 53% 29.90 in 10.0 mi West 3.5 mph - N/A   Clear
9:54 PM 37.0 °F - 28.0 °F 70% 29.92 in 10.0 mi Calm Calm - N/A   Clear
10:54 PM 39.0 °F 36.8 °F 27.0 °F 62% 29.95 in 10.0 mi SW 3.5 mph - 0.00 in Rain Light Rain
11:54 PM 37.9 °F - 28.9 °F 70% 29.94 in 10.0 mi Calm Calm - 0.00 in   Overcast